カタログに戻る

LT-1 01B

運用中科学SSO
NORAD 51822·PAYLOAD·🇨🇳 China

打ち上げ Feb 26, 2022 から Jiuquan Satellite Launch Center

Loading…

次のパス (今後24時間)

TLE

最新Source: Space-Track

元期: Sep 14, 2026, 15:02 UTC

1 51822U 22018A   26257.62656175  .00000433  00000-0  52563-4 0  9996
2 51822  97.8110 263.7814 0001560  87.0026 273.1369 14.88415526247011

AllMySatでLT-1 01Bをリアルタイム追跡

Download on the App Store